Location: Elende
(51.4317°N, 10.6316°E)
Time: 01:42:37
(UTC+00:00)

Lacrosse 4 Rocket - Pass Details

Date: 18 September 2020
Orbit: 543 x 615 km, 68.0° (Epoch: 23 October)

Event Time Altitude Azimuth Distance (km) Brightness Sun altitude
Rises 19:19:20 0° 328° (NNW) 2,717 5.9 -18.1°
Reaches altitude 10° 19:22:15 10° 351° (N) 1,822 4.4 -18.5°
Maximum altitude 19:24:51 16° 31° (NNE) 1,464 3.4 -18.8°
Enters shadow 19:25:50 15° 48° (NE) 1,520 3.4 -19.0°
